Location: ?????????
(41.2286°N, 23.0068°E)
Time: 01:24:31
(UTC+00:00)

Daily predictions for brighter satellites

Satellite Brightness Start Highest point End
(mag) Time Altitude Azimuth Time Altitude Azimuth Time Altitude Azimuth
USA 267 4.4 01:29:16 10° NE 01:32:57 37° NE 01:32:57 37° NE
ACS3 Solar Sail 3.4 02:01:33 10° N 02:03:45 24° N 02:03:45 24° N
USA 234 3.7 02:04:23 10° ESE 02:10:44 55° NNE 02:11:31 52° N
Cosmos 2360 Rocket 4.2 02:17:23 18° N 02:17:23 18° N 02:18:51 10° NNE
Cosmos 2322 Rocket 4.3 02:17:43 16° N 02:17:43 16° N 02:18:55 10° N
Cosmos 1943 Rocket 4.3 02:25:13 10° N 02:29:28 22° NE 02:33:40 10° ESE
ARGOS 3.5 02:30:35 10° NNE 02:34:50 56° NNE 02:34:50 56° NNE
PAYLOAD A 4.3 02:32:50 10° NNE 02:38:15 71° ESE 02:40:26 36° S
NOSS 3-1 (C) 3.1 02:40:02 65° NE 02:40:02 65° NE 02:44:40 10° NE
ADEOS Rocket 4.1 02:34:51 10° N 02:38:45 34° NNW 02:38:45 34° NNW
CZ-2C R/B 2.9 02:38:32 10° NNE 02:42:20 53° N 02:42:20 53° N
Cosmos 2100 Rocket 4.3 02:43:14 10° N 02:49:21 63° E 02:55:27 10° SSE
Cosmos 2219 Rocket 3.3 02:55:06 30° NNW 02:55:06 30° NNW 02:58:25 10° N
USA 59 Rocket 1.7 03:05:03 15° NNE 03:05:03 15° NNE 03:05:40 10° NNE
COSMOS 2428 2.6 02:59:22 27° SSW 03:02:37 89° WNW 03:08:21 10° NNE
Cosmos 2322 3.6 03:08:00 38° SW 03:10:10 67° WNW 03:15:50 10° NNE
Cosmos 1459 Rocket 4.0 03:04:26 10° N 03:10:50 84° E 03:17:10 10° S
Meteor 2-21 4.3 03:06:45 10° S 03:12:51 79° W 03:18:57 10° N
Cosmos 1727 Rocket 4.0 03:08:46 10° SSW 03:14:47 55° W 03:20:53 10° N
SL-08 RB Rocket 4.1 03:12:06 10° N 03:15:42 44° NW 03:15:42 44° NW
FengYun 1-2 T 4.3 03:11:39 10° NNE 03:17:15 83° ESE 03:22:51 10° SSW
USA 267 4.0 03:12:37 10° NE 03:18:22 34° NNW 03:20:18 29° NW
COSMO-SKYMED 1 4.2 03:17:07 10° SE 03:20:47 32° ENE 03:24:28 10° N
Cosmos 1725 Rocket 4.3 03:14:46 10° N 03:21:06 69° E 03:27:21 10° SSE
Cosmos 1980 4.2 03:17:05 10° S 03:22:36 59° ESE 03:28:10 10° NNE
Cosmos 1023 Rocket 4.3 03:18:48 16° NNW 03:22:55 86° WSW 03:27:57 10° SSE
NOSS 3-1 (A) 3.0 03:19:35 14° SSW 03:23:26 73° ESE 03:28:45 10° NE
Intercosmos 25 Rocket 4.5 03:20:48 19° SW 03:24:13 52° WNW 03:31:56 10° N
Cosmos 1802 Rocket 4.0 03:22:28 10° N 03:28:52 87° E 03:35:08 10° S
NOSS 2-1 (E) 3.8 03:32:53 33° NNW 03:32:53 33° NNW 03:35:13 10° NNE
Cosmos 1269 Rocket 3.9 03:29:02 14° NNW 03:33:30 65° WSW 03:38:42 10° S
Meteor 2-16 Rocket 4.4 03:29:23 10° S 03:35:28 86° W 03:41:38 10° N
Cosmos 2278 Rocket 2.5 03:31:04 10° NNW 03:36:44 69° ENE 03:42:20 10° SSE
Cosmos 1703 Rocket 3.4 03:34:05 10° SSW 03:38:23 66° W 03:42:45 10° N
Cosmos 2237 Rocket 2.4 03:33:14 10° SSW 03:38:52 75° ESE 03:44:31 10° NNE
Cosmos 1328 3.7 03:36:26 10° SSW 03:39:56 46° W 03:43:28 10° N
Cosmos 2173 Rocket 4.0 03:34:07 10° NNW 03:40:00 53° W 03:45:52 10° SSW
Cosmos 921 Rocket 3.8 03:40:15 30° W 03:40:15 30° W 03:44:05 10° SSW
Cosmos 2292 Rocket 3.5 03:40:44 10° S 03:44:41 86° W 03:49:49 10° N
Meteor 1-24 Rocket 3.8 03:42:30 10° SSW 03:48:13 57° WNW 03:53:45 10° N
Cosmos 1939 Rocket 3.6 03:45:12 10° N 03:48:32 28° WNW 03:48:49 28° WNW
ACS3 Solar Sail 3.5 03:46:47 10° NNW 03:47:53 12° NW 03:47:53 12° NW
USA 234 3.6 03:47:32 10° SSE 03:53:47 47° SW 03:58:53 16° WNW
BlueWalker 3 1.7 03:53:51 24° NW 03:55:56 84° SW 03:59:32 10° SE
Cosmos 2123 Rocket 4.1 03:50:21 10° SSW 03:56:21 49° WNW 04:02:21 10° N
Helios 1A Rocket 2.3 03:54:26 10° S 03:57:47 64° WSW 04:01:10 10° NNW
Meteor 2-5 Rocket 4.0 03:53:19 10° SSW 03:59:04 51° WNW 04:04:48 10° N
CZ-4 R/B 3.9 03:54:21 10° N 03:59:07 56° WNW 04:03:48 10° SSW
USA 276 1.6 04:00:15 30° WNW 04:01:21 69° SSW 04:04:07 10° SE
Gbstr 26 Del rocket 4.2 03:59:16 19° WNW 04:02:23 38° NNW 04:08:00 10° NE
Cosmos 1420 Rocket 4.1 03:57:29 10° SSW 04:02:44 82° ESE 04:08:02 10° NNE
Cosmos 1782 Rocket 3.5 03:58:37 10° N 04:03:02 79° W 04:07:22 10° S
NOAA 12 4.1 04:01:18 10° N 04:06:31 58° WNW 04:11:42 10° SSW
Cosmos 44 Rocket 3.8 04:05:02 12° NW 04:09:28 43° WSW 04:14:19 10° S
Cosmos 2016 Rocket 4.2 04:05:09 10° NNW 04:11:19 53° W 04:17:25 10° SSW
Cosmos 1943 Rocket 2.2 04:08:09 10° NNW 04:13:34 57° WSW 04:18:55 10° S
Cosmos 2346 Rocket 4.5 04:09:17 10° S 04:15:28 88° W 04:21:37 10° N
CZ-2C R/B 4.2 04:19:18 10° NW 04:20:50 11° WNW 04:21:32 11° WNW
Cosmos 1140 Rocket 4.4 04:16:58 10° NW 04:21:10 26° W 04:25:21 10° SSW
Timation 2 Rocket 4.5 04:17:26 10° NW 04:23:33 41° WSW 04:29:24 10° S
Cosmos 1300 Rocket 3.9 04:19:29 10° NNW 04:23:33 40° W 04:27:34 10° SSW
Cosmos 1812 3.6 04:24:17 10° N 04:27:04 38° E 04:29:48 10° SSE
Aureole 3 Rocket 3.9 04:22:40 10° N 04:27:11 73° E 04:33:28 10° SSE
Cosmos 2061 Rocket 4.1 04:25:19 10° NNW 04:31:21 56° W 04:37:21 10° SSW
Iridium 4 Rocket 4.1 04:30:11 10° NNW 04:33:34 23° W 04:36:52 10° SW
SJ 16-02 1.9 04:31:18 10° N 04:35:34 60° ENE 04:39:47 10° SSE
Orbus 7S? 4.3 04:30:45 10° WSW 04:36:06 33° NW 04:39:06 10° NNE
SL-16 R/B 2.9 04:31:29 10° S 04:37:05 63° ESE 04:42:42 10° NNE
CBERS-1 4.0 04:32:14 10° NNE 04:37:22 79° WNW 04:42:28 10° SSW
In-Cosmos 22 Rocket 4.3 04:32:18 10° S 04:38:06 86° W 04:43:58 10° N
Cosmos 1378 Rocket 3.7 04:36:26 10° S 04:40:41 77° E 04:44:58 10° N
Cosmos 1190 Rocket 4.0 04:36:10 10° NNW 04:41:27 79° WSW 04:46:40 10° SSE
